Погода в Новом Березово

Россия / Рязанская область     54°12′16″N   41°58′33″E
темп.,
°C
ветер,
м/с
пор.,
м/с
влажн.,
%
обл.,
%
осадки,
мм/ч
давл.,
гПа
погр.,
м
20 апреля, вт
вт2000:00+6в61268100 0.0 1022669
03:00+5в61080100 0.3 1022777
06:00+4в61184100 0.3 1022673
09:00+4в61279100 1.3 1022761
12:00+5вюв61376100 0.8 1020969
15:00+3в71591100 2.9 1020868
18:00+4вюв71584100 2.8 1017942
21:00+4вюв81790100 4.6 1014947
21 апреля, ср
ср2100:00+5вюв102192100 8.3 10081275
03:00+7юв101992100 9.9 1005898
06:00+8юв101691100 0.3 1005978
09:00+9ююв81488100 0.8 10051223
12:00+9ююв8148898 0.6 1006953
15:00+6юз51191100 1.2 1009590
18:00+6юз5985100 0.1 1012952
21:00+6ююз3887100 0.1 1014440
22 апреля, чт
чт2200:00+6ю379169 0.0 1015264
03:00+5ю399679 0.4 1015283
06:00+5ююз4996100 0.0 1016391
09:00+6юз578797 0.1 1018676
12:00+9юз456793 0.1 10191195
15:00+11юз366078 0.1 10191134
18:00+11ю366729 0.1 1019212
21:00+7ю33815 0.1 102046
23 апреля, пт
пт2300:00+6ююв388613 0.0 1020134
03:00+6ююв378718 0.0 1020131
06:00+6ю399157 0.0 1020178
09:00+9ю41083100 0.0 1021286
12:00+15ююз57628 0.1 1020779
15:00+15ююз475996 0.3 1019534
18:00+15ююв36626 0.1 1018158
21:00+11ююв4107394 0.3 1018265
24 апреля, сб
сб2400:00+9ююв49815 0.0 1017180
03:00+7ююв411885 0.0 1015231
06:00+8ююв41188100 0.1 1014265
09:00+13ю697012 0.6 1013753
12:00+16ююв795368 0.7 10101702
15:00+14юз8967100 3.0 10091240
18:00+6з5789100 1.0 1011639
21:00+5зсз4788100 2.7 1011812